Year,Month,Day,Hour,Minute,Value (Times are PST for temperature in C)
2018,02,17,00,00,3.80
2018,02,17,00,01,3.80
2018,02,17,00,02,3.80
2018,02,17,00,03,3.90
2018,02,17,00,04,3.90
2018,02,17,00,05,3.80
2018,02,17,00,06,3.90
2018,02,17,00,07,3.90
2018,02,17,00,08,3.80
2018,02,17,00,09,3.80
2018,02,17,00,10,3.80
2018,02,17,00,11,3.80
2018,02,17,00,12,3.80
2018,02,17,00,13,3.80
2018,02,17,00,14,3.80
2018,02,17,00,15,3.80
2018,02,17,00,16,3.80
2018,02,17,00,17,3.80
2018,02,17,00,18,3.80
2018,02,17,00,19,3.80
2018,02,17,00,20,3.80
2018,02,17,00,21,3.80
2018,02,17,00,22,3.80
2018,02,17,00,23,3.80
2018,02,17,00,24,3.80
2018,02,17,00,25,3.80
2018,02,17,00,26,3.70
2018,02,17,00,27,3.70
2018,02,17,00,28,3.70
2018,02,17,00,29,3.70
2018,02,17,00,30,3.70
2018,02,17,00,31,3.70
2018,02,17,00,32,3.70
2018,02,17,00,33,3.70
2018,02,17,00,34,3.70
2018,02,17,00,35,3.70
2018,02,17,00,36,3.70
2018,02,17,00,37,3.70
2018,02,17,00,38,3.70
2018,02,17,00,39,3.70
2018,02,17,00,40,3.70
2018,02,17,00,41,3.70
2018,02,17,00,42,3.70
2018,02,17,00,43,3.70
2018,02,17,00,44,3.70
2018,02,17,00,45,3.70
2018,02,17,00,46,3.70
2018,02,17,00,47,3.70
2018,02,17,00,48,3.70
2018,02,17,00,49,3.70
2018,02,17,00,50,3.70
2018,02,17,00,51,3.70
2018,02,17,00,52,3.70
2018,02,17,00,53,3.70
2018,02,17,00,54,3.70
2018,02,17,00,55,3.70
2018,02,17,00,56,3.70
2018,02,17,00,57,3.70
2018,02,17,00,58,3.70
2018,02,17,00,59,3.70
2018,02,17,01,00,3.70
2018,02,17,01,01,3.70
2018,02,17,01,02,3.70
2018,02,17,01,03,3.70
2018,02,17,01,04,3.70
2018,02,17,01,05,3.70
2018,02,17,01,06,3.70
2018,02,17,01,07,3.70
2018,02,17,01,08,3.70
2018,02,17,01,09,3.70
2018,02,17,01,10,3.70
2018,02,17,01,11,3.70
2018,02,17,01,12,3.70
2018,02,17,01,13,3.70
2018,02,17,01,14,3.70
2018,02,17,01,15,3.70
2018,02,17,01,16,3.70
2018,02,17,01,17,3.70
2018,02,17,01,18,3.70
2018,02,17,01,19,3.70
2018,02,17,01,20,3.70
2018,02,17,01,21,3.70
2018,02,17,01,22,3.70
2018,02,17,01,23,3.70
2018,02,17,01,24,3.70
2018,02,17,01,25,3.70
2018,02,17,01,26,3.70
2018,02,17,01,27,3.70
2018,02,17,01,28,3.70
2018,02,17,01,29,3.70
2018,02,17,01,30,3.70
2018,02,17,01,31,3.70
2018,02,17,01,32,3.70
2018,02,17,01,33,3.70
2018,02,17,01,34,3.70
2018,02,17,01,35,3.70
2018,02,17,01,36,3.70
2018,02,17,01,37,3.70
2018,02,17,01,38,3.70
2018,02,17,01,39,3.70
2018,02,17,01,40,3.70
2018,02,17,01,41,3.70
2018,02,17,01,42,3.70
2018,02,17,01,43,3.70
2018,02,17,01,44,3.70
2018,02,17,01,45,3.70
2018,02,17,01,46,3.70
2018,02,17,01,47,3.70
2018,02,17,01,48,3.70
2018,02,17,01,49,3.70
2018,02,17,01,50,3.70
2018,02,17,01,51,3.70
2018,02,17,01,52,3.70
2018,02,17,01,53,3.70
2018,02,17,01,54,3.70
2018,02,17,01,55,3.70
2018,02,17,01,56,3.70
2018,02,17,01,57,3.70
2018,02,17,01,58,3.70
2018,02,17,01,59,3.70
2018,02,17,02,00,3.70
2018,02,17,02,01,3.70
2018,02,17,02,02,3.70
2018,02,17,02,03,3.70
2018,02,17,02,04,3.70
2018,02,17,02,05,3.70
2018,02,17,02,06,3.70
2018,02,17,02,07,3.70
2018,02,17,02,08,3.70
2018,02,17,02,09,3.70
2018,02,17,02,10,3.70
2018,02,17,02,11,3.70
2018,02,17,02,12,3.70
2018,02,17,02,13,3.70
2018,02,17,02,14,3.70
2018,02,17,02,15,3.70
2018,02,17,02,16,3.70
2018,02,17,02,17,3.70
2018,02,17,02,18,3.70
2018,02,17,02,19,3.70
2018,02,17,02,20,3.70
2018,02,17,02,21,3.70
2018,02,17,02,22,3.70
2018,02,17,02,23,3.70
2018,02,17,02,24,3.70
2018,02,17,02,25,3.70
2018,02,17,02,26,3.70
2018,02,17,02,27,3.70
2018,02,17,02,28,3.70
2018,02,17,02,29,3.70
2018,02,17,02,30,3.70
2018,02,17,02,31,3.70
2018,02,17,02,32,3.70
2018,02,17,02,33,3.70
2018,02,17,02,34,3.70
2018,02,17,02,35,3.70
2018,02,17,02,36,3.70
2018,02,17,02,37,3.70
2018,02,17,02,38,3.70
2018,02,17,02,39,3.70
2018,02,17,02,40,3.80
2018,02,17,02,41,3.80
2018,02,17,02,42,3.80
2018,02,17,02,43,3.80
2018,02,17,02,44,3.80
2018,02,17,02,45,3.80
2018,02,17,02,46,3.80
2018,02,17,02,47,3.90
2018,02,17,02,48,3.90
2018,02,17,02,49,3.90
2018,02,17,02,50,3.90
2018,02,17,02,51,3.90
2018,02,17,02,52,3.90
2018,02,17,02,53,3.90
2018,02,17,02,54,3.90
2018,02,17,02,55,4.00
2018,02,17,02,56,4.00
2018,02,17,02,57,4.00
2018,02,17,02,58,4.00
2018,02,17,02,59,4.00
2018,02,17,03,00,4.00
2018,02,17,03,01,4.00
2018,02,17,03,02,4.10
2018,02,17,03,03,4.10
2018,02,17,03,04,4.10
2018,02,17,03,05,4.10
2018,02,17,03,06,4.10
2018,02,17,03,07,4.10
2018,02,17,03,08,4.10
2018,02,17,03,09,4.10
2018,02,17,03,10,4.10
2018,02,17,03,11,4.10
2018,02,17,03,12,4.10
2018,02,17,03,13,4.10
2018,02,17,03,14,4.10
2018,02,17,03,15,4.10
2018,02,17,03,16,4.10
2018,02,17,03,17,4.10
2018,02,17,03,18,4.10
2018,02,17,03,19,4.00
2018,02,17,03,20,4.00
2018,02,17,03,21,4.00
2018,02,17,03,22,4.00
2018,02,17,03,23,4.00
2018,02,17,03,24,4.00
2018,02,17,03,25,3.90
2018,02,17,03,26,3.90
2018,02,17,03,27,3.90
2018,02,17,03,28,3.90
2018,02,17,03,29,3.90
2018,02,17,03,30,3.90
2018,02,17,03,31,3.90
2018,02,17,03,32,3.90
2018,02,17,03,33,3.80
2018,02,17,03,34,3.80
2018,02,17,03,35,3.80
2018,02,17,03,36,3.80
2018,02,17,03,37,3.80
2018,02,17,03,38,3.80
2018,02,17,03,39,3.80
2018,02,17,03,40,3.80
2018,02,17,03,41,3.80
2018,02,17,03,42,3.80
2018,02,17,03,43,3.80
2018,02,17,03,44,3.80
2018,02,17,03,45,3.80
2018,02,17,03,46,3.70
2018,02,17,03,47,3.70
2018,02,17,03,48,3.70
2018,02,17,03,49,3.70
2018,02,17,03,50,3.70
2018,02,17,03,51,3.70
2018,02,17,03,52,3.70
2018,02,17,03,53,3.70
2018,02,17,03,54,3.70
2018,02,17,03,55,3.70
2018,02,17,03,56,3.70
2018,02,17,03,57,3.70
2018,02,17,03,58,3.70
2018,02,17,03,59,3.70
2018,02,17,04,00,3.70
2018,02,17,04,01,3.70
2018,02,17,04,02,3.70
2018,02,17,04,03,3.60
2018,02,17,04,04,3.60
2018,02,17,04,05,3.60
2018,02,17,04,06,3.60
2018,02,17,04,07,3.60
2018,02,17,04,08,3.60
2018,02,17,04,09,3.60
2018,02,17,04,10,3.60
2018,02,17,04,11,3.60
2018,02,17,04,12,3.60
2018,02,17,04,13,3.60
2018,02,17,04,14,3.50
2018,02,17,04,15,3.50
2018,02,17,04,16,3.50
2018,02,17,04,17,3.50
2018,02,17,04,18,3.50
2018,02,17,04,19,3.40
2018,02,17,04,20,3.40
2018,02,17,04,21,3.40
2018,02,17,04,22,3.40
2018,02,17,04,23,3.40
2018,02,17,04,24,3.40
2018,02,17,04,25,3.40
2018,02,17,04,26,3.40
2018,02,17,04,27,3.40
2018,02,17,04,28,3.40
2018,02,17,04,29,3.40
2018,02,17,04,30,3.40
2018,02,17,04,31,3.40
2018,02,17,04,32,3.40
2018,02,17,04,33,3.40
2018,02,17,04,34,3.30
2018,02,17,04,35,3.30
2018,02,17,04,36,3.30
2018,02,17,04,37,3.30
2018,02,17,04,38,3.30
2018,02,17,04,39,3.30
2018,02,17,04,40,3.30
2018,02,17,04,41,3.30
2018,02,17,04,42,3.20
2018,02,17,04,43,3.30
2018,02,17,04,44,3.20
2018,02,17,04,45,3.20
2018,02,17,04,46,3.20
2018,02,17,04,47,3.20
2018,02,17,04,48,3.20
2018,02,17,04,49,3.20
2018,02,17,04,50,3.20
2018,02,17,04,51,3.20
2018,02,17,04,52,3.20
2018,02,17,04,53,3.20
2018,02,17,04,54,3.20
2018,02,17,04,55,3.20
2018,02,17,04,56,3.20
2018,02,17,04,57,3.20
2018,02,17,04,58,3.20
2018,02,17,04,59,3.20
2018,02,17,05,00,3.20
2018,02,17,05,01,3.20
2018,02,17,05,02,3.20
2018,02,17,05,03,3.20
2018,02,17,05,04,3.20
2018,02,17,05,05,3.10
2018,02,17,05,06,3.10
2018,02,17,05,07,3.10
2018,02,17,05,08,3.20
2018,02,17,05,09,3.10
2018,02,17,05,10,3.20
2018,02,17,05,11,3.20
2018,02,17,05,12,3.20
2018,02,17,05,13,3.10
2018,02,17,05,14,3.20
2018,02,17,05,15,3.20
2018,02,17,05,16,3.10
2018,02,17,05,17,3.10
2018,02,17,05,18,3.10
2018,02,17,05,19,3.10
2018,02,17,05,20,3.10
2018,02,17,05,21,3.10
2018,02,17,05,22,3.10
2018,02,17,05,23,3.10
2018,02,17,05,24,3.10
2018,02,17,05,25,3.00
2018,02,17,05,26,3.00
2018,02,17,05,27,3.00
2018,02,17,05,28,3.00
2018,02,17,05,29,3.00
2018,02,17,05,30,2.90
2018,02,17,05,31,2.90
2018,02,17,05,32,2.90
2018,02,17,05,33,2.90
2018,02,17,05,34,2.90
2018,02,17,05,35,2.90
2018,02,17,05,36,2.90
2018,02,17,05,37,2.90
2018,02,17,05,38,2.80
2018,02,17,05,39,2.80
2018,02,17,05,40,2.80
2018,02,17,05,41,2.80
2018,02,17,05,42,2.80
2018,02,17,05,43,2.80
2018,02,17,05,44,2.80
2018,02,17,05,45,2.80
2018,02,17,05,46,2.80
2018,02,17,05,47,2.80
2018,02,17,05,48,2.80
2018,02,17,05,49,2.80
2018,02,17,05,50,2.80
2018,02,17,05,51,2.80
2018,02,17,05,52,2.80
2018,02,17,05,53,2.80
2018,02,17,05,54,2.80
2018,02,17,05,55,2.80
2018,02,17,05,56,2.80
2018,02,17,05,57,2.80
2018,02,17,05,58,2.70
2018,02,17,05,59,2.70
2018,02,17,06,00,2.70
2018,02,17,06,01,2.70
2018,02,17,06,02,2.70
2018,02,17,06,03,2.70
2018,02,17,06,04,2.60
2018,02,17,06,05,2.60
2018,02,17,06,06,2.60
2018,02,17,06,07,2.60
2018,02,17,06,08,2.60
2018,02,17,06,09,2.60
2018,02,17,06,10,2.50
2018,02,17,06,11,2.50
2018,02,17,06,12,2.50
2018,02,17,06,13,2.50
2018,02,17,06,14,2.50
2018,02,17,06,15,2.40
2018,02,17,06,16,2.40
2018,02,17,06,17,2.40
2018,02,17,06,18,2.40
2018,02,17,06,19,2.40
2018,02,17,06,20,2.40
2018,02,17,06,21,2.40
2018,02,17,06,22,2.40
2018,02,17,06,23,2.40
2018,02,17,06,24,2.40
2018,02,17,06,25,2.40
2018,02,17,06,26,2.40
2018,02,17,06,27,2.40
2018,02,17,06,28,2.40
2018,02,17,06,29,2.50
2018,02,17,06,30,2.50
2018,02,17,06,31,2.50
2018,02,17,06,32,2.50
2018,02,17,06,33,2.60
2018,02,17,06,34,2.60
2018,02,17,06,35,2.60
2018,02,17,06,36,2.60
2018,02,17,06,37,2.60
2018,02,17,06,38,2.60
2018,02,17,06,39,2.60
2018,02,17,06,40,2.60
2018,02,17,06,41,2.60
2018,02,17,06,42,2.60
2018,02,17,06,43,2.60
2018,02,17,06,44,2.70
2018,02,17,06,45,2.60
2018,02,17,06,46,2.60
2018,02,17,06,47,2.60
2018,02,17,06,48,2.60
2018,02,17,06,49,2.60
2018,02,17,06,50,2.60
2018,02,17,06,51,2.60
2018,02,17,06,52,2.60
2018,02,17,06,53,2.60
2018,02,17,06,54,2.60
2018,02,17,06,55,2.60
2018,02,17,06,56,2.60
2018,02,17,06,57,2.60
2018,02,17,06,58,2.60
2018,02,17,06,59,2.60
2018,02,17,07,00,2.60
2018,02,17,07,01,2.60
2018,02,17,07,02,2.60
2018,02,17,07,03,2.60
2018,02,17,07,04,2.60
2018,02,17,07,05,2.60
2018,02,17,07,06,2.60
2018,02,17,07,07,2.60
2018,02,17,07,08,2.60
2018,02,17,07,09,2.60
2018,02,17,07,10,2.60
2018,02,17,07,11,2.60
2018,02,17,07,12,2.60
2018,02,17,07,13,2.60
2018,02,17,07,14,2.60
2018,02,17,07,15,2.60
2018,02,17,07,16,2.60
2018,02,17,07,17,2.50
2018,02,17,07,18,2.50
2018,02,17,07,19,2.50
2018,02,17,07,20,2.50
2018,02,17,07,21,2.50
2018,02,17,07,22,2.50
2018,02,17,07,23,2.50
2018,02,17,07,24,2.50
2018,02,17,07,25,2.50
2018,02,17,07,26,2.40
2018,02,17,07,27,2.40
2018,02,17,07,28,2.40
2018,02,17,07,29,2.40
2018,02,17,07,30,2.40
2018,02,17,07,31,2.40
2018,02,17,07,32,2.40
2018,02,17,07,33,2.40
2018,02,17,07,34,2.40
2018,02,17,07,35,2.40
2018,02,17,07,36,2.30
2018,02,17,07,37,2.30
2018,02,17,07,38,2.30
2018,02,17,07,39,2.30
2018,02,17,07,40,2.30
2018,02,17,07,41,2.30
2018,02,17,07,42,2.30
2018,02,17,07,43,2.20
2018,02,17,07,44,2.20
2018,02,17,07,45,2.20
2018,02,17,07,46,2.20
2018,02,17,07,47,2.20
2018,02,17,07,48,2.20
2018,02,17,07,49,2.20
2018,02,17,07,50,2.20
2018,02,17,07,51,2.20
2018,02,17,07,52,2.20
2018,02,17,07,53,2.20
2018,02,17,07,54,2.20
2018,02,17,07,55,2.20
2018,02,17,07,56,2.20
2018,02,17,07,57,2.20
2018,02,17,07,58,2.20
2018,02,17,07,59,2.20
2018,02,17,08,00,2.20
2018,02,17,08,01,2.20
2018,02,17,08,02,2.20
2018,02,17,08,03,2.20
2018,02,17,08,04,2.20
2018,02,17,08,05,2.20
2018,02,17,08,06,2.20
2018,02,17,08,07,2.20
2018,02,17,08,08,2.20
2018,02,17,08,09,2.10
2018,02,17,08,10,2.10
2018,02,17,08,11,2.10
2018,02,17,08,12,2.10
2018,02,17,08,13,2.10
2018,02,17,08,14,2.10
2018,02,17,08,15,2.10
2018,02,17,08,16,2.10
2018,02,17,08,17,2.10
2018,02,17,08,18,2.10
2018,02,17,08,19,2.10
2018,02,17,08,20,2.10
2018,02,17,08,21,2.10
2018,02,17,08,22,2.10
2018,02,17,08,23,2.10
2018,02,17,08,24,2.00
2018,02,17,08,25,2.00
2018,02,17,08,26,2.00
2018,02,17,08,27,2.00
2018,02,17,08,28,2.00
2018,02,17,08,29,2.00
2018,02,17,08,30,2.00
2018,02,17,08,31,2.00
2018,02,17,08,32,2.10
2018,02,17,08,33,2.10
2018,02,17,08,34,2.10
2018,02,17,08,35,2.10
2018,02,17,08,36,2.10
2018,02,17,08,37,2.10
2018,02,17,08,38,2.10
2018,02,17,08,39,2.10
2018,02,17,08,40,2.10
2018,02,17,08,41,2.10
2018,02,17,08,42,2.10
2018,02,17,08,43,2.10
2018,02,17,08,44,2.10
2018,02,17,08,45,2.10
2018,02,17,08,46,2.10
2018,02,17,08,47,2.10
2018,02,17,08,48,2.10
2018,02,17,08,49,2.10
2018,02,17,08,50,2.10
2018,02,17,08,51,2.10
2018,02,17,08,52,2.20
2018,02,17,08,53,2.20
2018,02,17,08,54,2.20
2018,02,17,08,55,2.20
2018,02,17,08,56,2.20
2018,02,17,08,57,2.20
2018,02,17,08,58,2.20
2018,02,17,08,59,2.20
2018,02,17,09,00,2.20
2018,02,17,09,01,2.30
2018,02,17,09,02,2.30
2018,02,17,09,03,2.30
2018,02,17,09,04,2.30
2018,02,17,09,05,2.30
2018,02,17,09,06,2.30
2018,02,17,09,07,2.30
2018,02,17,09,08,2.30
2018,02,17,09,09,2.30
2018,02,17,09,10,2.30
2018,02,17,09,11,2.30
2018,02,17,09,12,2.30
2018,02,17,09,13,2.30
2018,02,17,09,14,2.40
2018,02,17,09,15,2.40
2018,02,17,09,16,2.40
2018,02,17,09,17,2.40
2018,02,17,09,18,2.40
2018,02,17,09,19,2.40
2018,02,17,09,20,2.50
2018,02,17,09,21,2.50
2018,02,17,09,22,2.50
2018,02,17,09,23,2.50
2018,02,17,09,24,2.60
2018,02,17,09,25,2.60
2018,02,17,09,26,2.60
2018,02,17,09,27,2.60
2018,02,17,09,28,2.60
2018,02,17,09,29,2.70
2018,02,17,09,30,2.70
2018,02,17,09,31,2.70
2018,02,17,09,32,2.70
2018,02,17,09,33,2.80
2018,02,17,09,34,2.80
2018,02,17,09,35,2.80
2018,02,17,09,36,2.90
2018,02,17,09,37,2.90
2018,02,17,09,38,3.00
2018,02,17,09,39,3.00
2018,02,17,09,40,3.10
2018,02,17,09,41,3.20
2018,02,17,09,42,3.30
2018,02,17,09,43,3.30
2018,02,17,09,44,3.40
2018,02,17,09,45,3.40
2018,02,17,09,46,3.50
2018,02,17,09,47,3.50
2018,02,17,09,48,3.60
2018,02,17,09,49,3.60
2018,02,17,09,50,3.60
2018,02,17,09,51,3.70
2018,02,17,09,52,3.70
2018,02,17,09,53,3.80
2018,02,17,09,54,3.80
2018,02,17,09,55,3.90
2018,02,17,09,56,3.90
2018,02,17,09,57,3.90
2018,02,17,09,58,4.00
2018,02,17,09,59,4.00
2018,02,17,10,00,4.10
2018,02,17,10,01,4.10
2018,02,17,10,02,4.20
2018,02,17,10,03,4.20
2018,02,17,10,04,4.30
2018,02,17,10,05,4.30
2018,02,17,10,06,4.40
2018,02,17,10,07,4.40
2018,02,17,10,08,4.40
2018,02,17,10,09,4.50
2018,02,17,10,10,4.50
2018,02,17,10,11,4.60
2018,02,17,10,12,4.60
2018,02,17,10,13,4.60
2018,02,17,10,14,4.70
2018,02,17,10,15,4.70
2018,02,17,10,16,4.70
2018,02,17,10,17,4.70
2018,02,17,10,18,4.70
2018,02,17,10,19,4.80
2018,02,17,10,20,4.80
2018,02,17,10,21,4.90
2018,02,17,10,22,4.90
2018,02,17,10,23,5.00
2018,02,17,10,24,5.10
2018,02,17,10,25,5.10
2018,02,17,10,26,5.10
2018,02,17,10,27,5.10
2018,02,17,10,28,5.20
2018,02,17,10,29,5.20
2018,02,17,10,30,5.30
2018,02,17,10,31,5.30
2018,02,17,10,32,5.30
2018,02,17,10,33,5.30
2018,02,17,10,34,5.30
2018,02,17,10,35,5.30
2018,02,17,10,36,5.30
2018,02,17,10,37,5.30
2018,02,17,10,38,5.30
2018,02,17,10,39,5.30
2018,02,17,10,40,5.40
2018,02,17,10,41,5.40
2018,02,17,10,42,5.40
2018,02,17,10,43,5.50
2018,02,17,10,44,5.50
2018,02,17,10,45,5.60
2018,02,17,10,46,5.60
2018,02,17,10,47,5.60
2018,02,17,10,48,5.70
2018,02,17,10,49,5.70
2018,02,17,10,50,5.70
2018,02,17,10,51,5.70
2018,02,17,10,52,5.70
2018,02,17,10,53,5.80
2018,02,17,10,54,5.80
2018,02,17,10,55,5.90
2018,02,17,10,56,6.00
2018,02,17,10,57,6.00
2018,02,17,10,58,6.10
2018,02,17,10,59,6.10
2018,02,17,11,00,6.10
2018,02,17,11,01,6.20
2018,02,17,11,02,6.20
2018,02,17,11,03,6.30
2018,02,17,11,04,6.30
2018,02,17,11,05,6.30
2018,02,17,11,06,6.40
2018,02,17,11,07,6.40
2018,02,17,11,08,6.40
2018,02,17,11,09,6.50
2018,02,17,11,10,6.50
2018,02,17,11,11,6.50
2018,02,17,11,12,6.50
2018,02,17,11,13,6.50
2018,02,17,11,14,6.50
2018,02,17,11,15,6.50
2018,02,17,11,16,6.50
2018,02,17,11,17,6.50
2018,02,17,11,18,6.40
2018,02,17,11,19,6.40
2018,02,17,11,20,6.40
2018,02,17,11,21,6.50
2018,02,17,11,22,6.50
2018,02,17,11,23,6.50
2018,02,17,11,24,6.50
2018,02,17,11,25,6.50
2018,02,17,11,26,6.50
2018,02,17,11,27,6.50
2018,02,17,11,28,6.40
2018,02,17,11,29,6.30
2018,02,17,11,30,6.30
2018,02,17,11,31,6.20
2018,02,17,11,32,6.20
2018,02,17,11,33,6.10
2018,02,17,11,34,6.00
2018,02,17,11,35,5.80
2018,02,17,11,36,5.80
2018,02,17,11,37,5.70
2018,02,17,11,38,5.50
2018,02,17,11,39,5.50
2018,02,17,11,40,5.40
2018,02,17,11,41,5.30
2018,02,17,11,42,5.20
2018,02,17,11,43,5.20
2018,02,17,11,44,5.10
2018,02,17,11,45,5.10
2018,02,17,11,46,5.00
2018,02,17,11,47,4.90
2018,02,17,11,48,4.90
2018,02,17,11,49,4.80
2018,02,17,11,50,4.80
2018,02,17,11,51,4.80
2018,02,17,11,52,4.80
2018,02,17,11,53,4.80
2018,02,17,11,54,4.80
2018,02,17,11,55,4.80
2018,02,17,11,56,4.70
2018,02,17,11,57,4.70
2018,02,17,11,58,4.80
2018,02,17,11,59,4.80
2018,02,17,12,00,4.80
2018,02,17,12,01,4.80
2018,02,17,13,04,5.00
2018,02,17,13,05,5.00
2018,02,17,13,06,5.00
2018,02,17,13,07,5.10
2018,02,17,13,08,5.10
2018,02,17,13,09,5.10
2018,02,17,13,10,5.10
2018,02,17,13,11,5.20
2018,02,17,13,12,5.20
2018,02,17,13,13,5.20
2018,02,17,13,14,5.30
2018,02,17,13,15,5.30
2018,02,17,13,16,5.30
2018,02,17,13,17,5.40
2018,02,17,13,18,5.40
2018,02,17,13,19,5.50
2018,02,17,13,20,5.50
2018,02,17,13,21,5.60
2018,02,17,13,22,5.60
2018,02,17,13,23,5.70
2018,02,17,13,24,5.70
2018,02,17,13,25,5.70
2018,02,17,13,26,5.80
2018,02,17,13,27,5.80
2018,02,17,13,28,5.90
2018,02,17,13,29,5.90
2018,02,17,13,30,6.00
2018,02,17,13,31,6.00
2018,02,17,13,32,6.10
2018,02,17,13,33,6.10
2018,02,17,13,34,6.20
2018,02,17,13,35,6.20
2018,02,17,13,36,6.30
2018,02,17,13,37,6.30
2018,02,17,13,38,6.30
2018,02,17,13,39,6.30
2018,02,17,13,40,6.40
2018,02,17,13,41,6.40
2018,02,17,13,42,6.40
2018,02,17,13,43,6.40
2018,02,17,13,44,6.40
2018,02,17,13,45,6.40
2018,02,17,13,46,6.40
2018,02,17,13,47,6.40
2018,02,17,13,48,6.40
2018,02,17,13,49,6.40
2018,02,17,13,50,6.40
2018,02,17,13,51,6.40
2018,02,17,13,52,6.40
2018,02,17,13,53,6.40
2018,02,17,13,54,6.40
2018,02,17,13,55,6.40
2018,02,17,13,56,6.40
2018,02,17,13,57,6.40
2018,02,17,13,58,6.50
2018,02,17,13,59,6.50
2018,02,17,14,00,6.50
2018,02,17,14,01,6.50
2018,02,17,14,02,6.60
2018,02,17,14,03,6.60
2018,02,17,14,04,6.60
2018,02,17,14,05,6.60
2018,02,17,14,06,6.70
2018,02,17,14,07,6.70
2018,02,17,14,08,6.70
2018,02,17,14,09,6.70
2018,02,17,14,10,6.70
2018,02,17,14,11,6.70
2018,02,17,14,12,6.70
2018,02,17,14,13,6.70
2018,02,17,14,14,6.70
2018,02,17,14,15,6.70
2018,02,17,14,16,6.70
2018,02,17,14,17,6.70
2018,02,17,14,18,6.70
2018,02,17,14,19,6.70
2018,02,17,14,20,6.70
2018,02,17,14,21,6.70
2018,02,17,14,22,6.80
2018,02,17,14,23,6.80
2018,02,17,14,24,6.80
2018,02,17,14,25,6.80
2018,02,17,14,26,6.80
2018,02,17,14,27,6.80
2018,02,17,14,28,6.80
2018,02,17,14,29,6.80
2018,02,17,14,30,6.80
2018,02,17,14,31,6.80
2018,02,17,14,32,6.80
2018,02,17,14,33,6.80
2018,02,17,14,34,6.80
2018,02,17,14,35,6.80
2018,02,17,14,36,6.80
2018,02,17,14,37,6.80
2018,02,17,14,38,6.80
2018,02,17,14,39,6.80
2018,02,17,14,40,6.80
2018,02,17,14,41,6.90
2018,02,17,14,42,6.90
2018,02,17,14,43,6.90
2018,02,17,14,44,6.90
2018,02,17,14,45,6.90
2018,02,17,14,46,6.90
2018,02,17,14,47,7.00
2018,02,17,14,48,7.00
2018,02,17,14,49,7.00
2018,02,17,14,50,7.00
2018,02,17,14,51,7.10
2018,02,17,14,52,7.10
2018,02,17,14,53,7.10
2018,02,17,14,54,7.10
2018,02,17,14,55,7.10
2018,02,17,14,56,7.10
2018,02,17,14,57,7.10
2018,02,17,14,58,7.10
2018,02,17,14,59,7.10
2018,02,17,15,00,7.10
2018,02,17,15,01,7.00
2018,02,17,15,02,7.00
2018,02,17,15,03,7.00
2018,02,17,15,04,7.00
2018,02,17,15,05,7.00
2018,02,17,15,06,7.00
2018,02,17,15,07,6.90
2018,02,17,15,08,6.90
2018,02,17,15,09,6.90
2018,02,17,15,10,6.90
2018,02,17,15,11,6.90
2018,02,17,15,12,6.90
2018,02,17,15,13,6.90
2018,02,17,15,14,6.90
2018,02,17,15,15,6.90
2018,02,17,15,16,7.00
2018,02,17,15,17,7.00
2018,02,17,15,18,7.00
2018,02,17,15,19,7.00
2018,02,17,15,20,7.00
2018,02,17,15,21,7.10
2018,02,17,15,22,7.10
2018,02,17,15,23,7.10
2018,02,17,15,24,7.10
2018,02,17,15,25,7.10
2018,02,17,15,26,7.10
2018,02,17,15,27,7.10
2018,02,17,15,28,7.10
2018,02,17,15,29,7.10
2018,02,17,15,30,7.10
2018,02,17,15,31,7.10
2018,02,17,15,32,7.10
2018,02,17,15,33,7.00
2018,02,17,15,34,7.00
2018,02,17,15,35,7.00
2018,02,17,15,36,6.90
2018,02,17,15,37,6.90
2018,02,17,15,38,6.90
2018,02,17,15,39,6.80
2018,02,17,15,40,6.80
2018,02,17,15,41,6.80
2018,02,17,15,42,6.80
2018,02,17,15,43,6.80
2018,02,17,15,44,6.80
2018,02,17,15,45,6.80
2018,02,17,15,46,6.70
2018,02,17,15,47,6.70
2018,02,17,15,48,6.70
2018,02,17,15,49,6.60
2018,02,17,15,50,6.60
2018,02,17,15,51,6.50
2018,02,17,15,52,6.50
2018,02,17,15,53,6.50
2018,02,17,15,54,6.40
2018,02,17,15,55,6.40
2018,02,17,15,56,6.40
2018,02,17,15,57,6.40
2018,02,17,15,58,6.40
2018,02,17,15,59,6.30
2018,02,17,16,00,6.30
2018,02,17,16,01,6.30
2018,02,17,16,02,6.30
2018,02,17,16,03,6.30
2018,02,17,16,04,6.30
2018,02,17,16,05,6.30
2018,02,17,16,06,6.30
2018,02,17,16,07,6.30
2018,02,17,16,08,6.30
2018,02,17,16,09,6.30
2018,02,17,16,10,6.30
2018,02,17,16,11,6.30
2018,02,17,16,12,6.30
2018,02,17,16,13,6.30
2018,02,17,16,14,6.30
2018,02,17,16,15,6.40
2018,02,17,16,16,6.40
2018,02,17,16,17,6.40
2018,02,17,16,18,6.40
2018,02,17,16,19,6.50
2018,02,17,16,20,6.50
2018,02,17,16,21,6.50
2018,02,17,16,22,6.50
2018,02,17,16,23,6.50
2018,02,17,16,24,6.50
2018,02,17,16,25,6.40
2018,02,17,16,26,6.50
2018,02,17,16,27,6.40
2018,02,17,16,28,6.40
2018,02,17,16,29,6.40
2018,02,17,16,30,6.40
2018,02,17,16,31,6.40
2018,02,17,16,32,6.30
2018,02,17,16,33,6.30
2018,02,17,16,34,6.30
2018,02,17,16,35,6.30
2018,02,17,16,36,6.30
2018,02,17,16,37,6.30
2018,02,17,16,38,6.30
2018,02,17,16,39,6.20
2018,02,17,16,40,6.20
2018,02,17,16,41,6.20
2018,02,17,16,42,6.20
2018,02,17,16,43,6.20
2018,02,17,16,44,6.10
2018,02,17,16,45,6.10
2018,02,17,16,46,6.10
2018,02,17,16,47,6.10
2018,02,17,16,48,6.10
2018,02,17,16,49,6.10
2018,02,17,16,50,6.00
2018,02,17,16,51,6.00
2018,02,17,16,52,6.00
2018,02,17,16,53,5.90
2018,02,17,16,54,5.90
2018,02,17,16,55,5.90
2018,02,17,16,56,5.90
2018,02,17,16,57,5.90
2018,02,17,16,58,5.90
2018,02,17,16,59,5.90
2018,02,17,17,00,5.80
2018,02,17,17,01,5.80
2018,02,17,17,02,5.80
2018,02,17,17,03,5.80
2018,02,17,17,04,5.80
2018,02,17,17,05,5.80
2018,02,17,17,06,5.70
2018,02,17,17,07,5.70
2018,02,17,17,08,5.70
2018,02,17,17,09,5.70
2018,02,17,17,10,5.70
2018,02,17,17,11,5.60
2018,02,17,17,12,5.60
2018,02,17,17,13,5.60
2018,02,17,17,14,5.60
2018,02,17,17,15,5.60
2018,02,17,17,16,5.60
2018,02,17,17,17,5.60
2018,02,17,17,18,5.60
2018,02,17,17,19,5.60
2018,02,17,17,20,5.60
2018,02,17,17,21,5.60
2018,02,17,17,22,5.60
2018,02,17,17,23,5.50
2018,02,17,17,24,5.50
2018,02,17,17,25,5.50
2018,02,17,17,26,5.50
2018,02,17,17,27,5.40
2018,02,17,17,28,5.40
2018,02,17,17,29,5.40
2018,02,17,17,30,5.40
2018,02,17,17,31,5.40
2018,02,17,17,32,5.40
2018,02,17,17,33,5.30
2018,02,17,17,34,5.30
2018,02,17,17,35,5.30
2018,02,17,17,36,5.30
2018,02,17,17,37,5.30
2018,02,17,17,38,5.30
2018,02,17,17,39,5.30
2018,02,17,17,40,5.30
2018,02,17,17,41,5.30
2018,02,17,17,42,5.30
2018,02,17,17,43,5.20
2018,02,17,17,44,5.20
2018,02,17,17,45,5.20
2018,02,17,17,46,5.20
2018,02,17,17,47,5.20
2018,02,17,17,48,5.10
2018,02,17,17,49,5.10
2018,02,17,17,50,5.10
2018,02,17,17,51,5.10
2018,02,17,17,52,5.10
2018,02,17,17,53,5.00
2018,02,17,17,54,5.00
2018,02,17,17,55,4.90
2018,02,17,17,56,4.90
2018,02,17,17,57,4.90
2018,02,17,17,58,4.90
2018,02,17,17,59,4.80
2018,02,17,18,00,4.80
2018,02,17,18,01,4.80
2018,02,17,18,02,4.70
2018,02,17,18,03,4.70
2018,02,17,18,04,4.70
2018,02,17,18,05,4.60
2018,02,17,18,06,4.60
2018,02,17,18,07,4.60
2018,02,17,18,08,4.50
2018,02,17,18,09,4.50
2018,02,17,18,10,4.50
2018,02,17,18,11,4.40
2018,02,17,18,12,4.40
2018,02,17,18,13,4.40
2018,02,17,18,14,4.30
2018,02,17,18,15,4.30
2018,02,17,18,16,4.30
2018,02,17,18,17,4.30
2018,02,17,18,18,4.20
2018,02,17,18,19,4.20
2018,02,17,18,20,4.20
2018,02,17,18,21,4.10
2018,02,17,18,22,4.10
2018,02,17,18,23,4.10
2018,02,17,18,24,4.10
2018,02,17,18,25,4.10
2018,02,17,18,26,4.00
2018,02,17,18,27,4.00
2018,02,17,18,28,4.00
2018,02,17,18,29,3.90
2018,02,17,18,30,3.90
2018,02,17,18,31,3.90
2018,02,17,18,32,3.90
2018,02,17,18,33,3.90
2018,02,17,18,34,3.90
2018,02,17,18,35,3.90
2018,02,17,18,36,3.90
2018,02,17,18,37,3.90
2018,02,17,18,38,3.90
2018,02,17,18,39,3.90
2018,02,17,18,40,3.90
2018,02,17,18,41,3.90
2018,02,17,18,42,3.90
2018,02,17,18,43,3.90
2018,02,17,18,44,3.80
2018,02,17,18,45,3.80
2018,02,17,18,46,3.80
2018,02,17,18,47,3.80
2018,02,17,18,48,3.80
2018,02,17,18,49,3.80
2018,02,17,18,50,3.80
2018,02,17,18,51,3.80
2018,02,17,18,52,3.70
2018,02,17,18,53,3.70
2018,02,17,18,54,3.70
2018,02,17,18,55,3.70
2018,02,17,18,56,3.70
2018,02,17,18,57,3.70
2018,02,17,18,58,3.60
2018,02,17,18,59,3.60
2018,02,17,19,00,3.60
2018,02,17,19,01,3.60
2018,02,17,19,02,3.60
2018,02,17,19,03,3.60
2018,02,17,19,04,3.60
2018,02,17,19,05,3.60
2018,02,17,19,06,3.60
2018,02,17,19,07,3.60
2018,02,17,19,08,3.60